This demonstration page uses our WeatherBlox Daily Observations layout. Learn more.

Left ArrowRight Arrow

34.74481, -87.66753

Hourly Observations for October 8, 2016

Temp ( °F °C ) Dew Point ( °F °C ) Humidity (%) Winds ( mph kmh ) Pressure ( in mb ) Visibility ( mi km ) Precip ( " mm )
12:53 am 00:53 Clear 72 22.2 58 14.4 61 61 N 8 13 30.02 1017 10 16 0.00 0.00
1:53 am 01:53 Clear 70 21.1 58 14.4 66 66 N 8 13 30.02 1017 10 16 0.00 0.00
2:53 am 02:53 Clear 68 20 59 15 73 73 N 9 15 30.03 1017 10 16 0.00 0.00
3:53 am 03:53 Clear 66 18.9 58 14.4 75 75 N 10 17 30.03 1017 10 16 0.00 0.00
4:53 am 04:53 Clear 64 17.8 55 12.8 73 73 N 10 17 30.04 1017 10 16 0.00 0.00
5:53 am 05:53 Clear 62 16.7 52 11.1 70 70 N 7 11 30.06 1018 10 16 0.00 0.00
6:53 am 06:53 Sunny 60 15.6 50 10 70 70 N 8 13 30.08 1019 10 16 0.00 0.00
7:53 am 07:53 Sunny 61 16.1 50 10 67 67 N 8 13 30.10 1019 10 16 0.00 0.00
8:53 am 08:53 Sunny 63 17.2 50 10 63 63 N 12 19 30.12 1020 10 16 0.00 0.00
9:53 am 09:53 Sunny 67 19.4 50 10 55 55 N 8 13 30.12 1020 10 16 0.00 0.00
10:53 am 10:53 Sunny 70 21.1 49 9.4 47 47 N 13 20 30.12 1020 10 16 0.00 0.00
11:53 am 11:53 Sunny 75 23.9 46 7.8 36 36 N 12 19 30.11 1020 10 16 0.00 0.00
12:53 pm 12:53 Sunny 77 25 37 2.8 24 24 N 9 15 30.10 1019 10 16 0.00 0.00
1:53 pm 13:53 Sunny 79 26.1 33 0.6 19 19 N 12 19 30.09 1019 10 16 0.00 0.00
2:53 pm 14:53 Sunny 79 26.1 30 -1.1 17 17 NNE 12 19 30.09 1019 10 16 0.00 0.00
3:53 pm 15:53 Sunny 79 26.1 30 -1.1 17 17 N 10 17 30.10 1019 10 16 0.00 0.00
4:53 pm 16:53 Sunny 77 25 31 -0.6 18 18 NNE 13 20 30.11 1020 10 16 0.00 0.00
5:53 pm 17:53 Sunny 74 23.3 31 -0.6 20 20 N 12 19 30.12 1020 10 16 0.00 0.00
6:53 pm 18:53 Clear 69 20.6 34 1.1 27 27 N 9 15 30.14 1021 10 16 0.00 0.00
7:53 pm 19:53 Clear 67 19.4 35 1.7 31 31 N 8 13 30.16 1021 10 16 0.00 0.00
8:53 pm 20:53 Clear 65 18.3 35 1.7 33 33 N 8 13 30.18 1022 10 16 0.00 0.00
9:53 pm 21:53 Clear 63 17.2 36 2.2 37 37 N 6 9 30.20 1023 10 16 0.00 0.00
10:53 pm 22:53 Clear 61 16.1 36 2.2 39 39 N 5 7 30.22 1023 10 16 0.00 0.00
11:53 pm 23:53 Clear 59 15 36 2.2 42 42 N 6 9 30.22 1023 10 16 0.00 0.00

Powered by AerisWeather